STARLINK-1677 (46576 NORAD) Tracking and Keplerian Element Data

This shows tracking and keplerian element data for the satellite.

Feedback or suggestion? Click here.




ElementValue
Catalog46576
NameSTARLINK-1677
Epoch Orbit178
Epoch Day330.91667824
Epoch Year2020
RAAN194.6244
Inclination52.9992
Eccentricity0.0002046
Argument of Perigee42.0965
Mean Anonmoly58.0502
Mean Motion15.62774275
Decay Rate0.00018622
L11 46576U 20070AW 20330.91667824 .00018622 00000-0 20856-3 0 9991
L22 46576 52.9992 194.6244 0002046 42.0965 58.0502 15.62774275 1786

Live tracking and technical data element details for STARLINK-1677 (NORAD 46576). STARLINK-1677 can be tracked NOW for your location showing map with azimuth and elevation plus other details from your city location.

Track the satellite on the map from your city or location and see movement details for azimuth, elevation, latitude, longitude, range, height, and movement on the map or in text.







IsCatalogInMostPopularTable: catalog: 46576, numindb: 10
Update: records affected: 1



GetName: 46576 STARLINK-1677

Hit Count: updated at: Thu, 26 Nov 2020 23:59:49 GMT